Terminal Aerodrome Forecast
Issued by NWS Sioux Falls, SD

Home | Current Version | Previous Version | Text Only | Print | Product List | Glossary On
Versions: 1 2 3 4 5 6 7 8 9 10 11 12 13 14 15 16 17 18 19 20 21 22 23 24 25 26 27
000
FTUS43 KFSD 172001 AAA
TAFSUX
TAF AMD
KSUX 172001Z 1720/1818 33018G25KT P6SM SCT035
     FM180000 35012KT P6SM SCT035
     FM180800 35004KT P6SM BKN015
     FM181500 17008KT P6SM SCT025=

USA.gov is the U.S. government's official web portal to all federal, state and local government web resources and services.